Weather History for Ishigakijima, Japan

Change the Weather History Date:

Tuesday, September 3, 2013

  Actual Average Record
Temperature  
Mean Temperature 82 °F -  
Max Temperature 87 °F 83 °F 91 °F (2014)
Min Temperature 79 °F 76 °F 77 °F (1996)
Cooling Degree Days 17    
Growing Degree Days 32 (Base 50)    
Moisture  
Dew Point 72 °F    
Average Humidity 70    
Maximum Humidity 74    
Minimum Humidity 56    
Precipitation  
Precipitation 0.00 in - - ()
Sea Level Pressure  
Sea Level Pressure 29.76 in    
Wind  
Wind Speed 12 mph ()    
Max Wind Speed 17 mph    
Max Gust Speed 25 mph    
Visibility 6.9 miles    
Events Rain    
Averages and records for this station are not official NWS values.
T = Trace of Precipitation, MM = Missing Value Source: Averaged Metar Reports

Daily Weather History Graph

Daily Weather History Graph

Search for Another Location

Airport:

Trip Planner

Search our weather history database for the weather conditions in past years. The results will help you decide how hot, cold, wet, or windy it might be!

Date:

Astronomy

Sep. 03, 2013 Rise Set
Actual Time 6:25 AM JST 6:59 PM JST
Civil Twilight 6:02 AM JST 7:22 PM JST
Nautical Twilight 5:35 AM JST 7:49 PM JST
Astronomical Twilight 5:07 AM JST 8:17 PM JST
Moon 4:13 AM JST (9/3) 5:21 PM JST (9/3)
Length of Visible Light 13h 20m
Length of Day
12h 34m
Waning Crescent, 6% of the Moon is Illuminated
Sep 3
Waning Crescent
Sep 5
New
Sep 13
First Quarter
Sep 19
Full
Sep 27
Last Quarter

Hourly Weather History & Observations

Time (JST) Temp. Heat Index Dew Point Humidity Pressure Visibility Wind Dir Wind Speed Gust Speed Precip Events Conditions
12:00 AM 80 °F - 72 °F 70% 29.81 in - WNW 13.8 mph - -  
3:00 AM 80 °F - 72 °F 70% 29.77 in 9 mi WNW 13.8 mph - -   Scattered Clouds
6:00 AM 80 °F - 72 °F 71% 29.76 in 9 mi NW 13.8 mph - -   Partly Cloudy
6:00 AM 78.8 °F - 69.8 °F 74% 29.74 in 6.2 mi WNW 11.5 mph - N/A   Partly Cloudy
7:00 AM 78.8 °F - 69.8 °F 74% 29.74 in 6.2 mi NW 11.5 mph - N/A   Scattered Clouds
8:00 AM 80.6 °F 83.9 °F 69.8 °F 70% 29.77 in 6.2 mi NW 9.2 mph - N/A   Scattered Clouds
9:00 AM 83 °F - 73 °F 65% 29.81 in 9 mi NW 17.3 mph - -   Mostly Cloudy
9:00 AM 82.4 °F 87.2 °F 71.6 °F 70% 29.77 in 6.2 mi NW 13.8 mph - N/A   Scattered Clouds
10:00 AM 82.4 °F 87.2 °F 71.6 °F 70% 29.77 in 6.2 mi NW 12.7 mph - N/A   Scattered Clouds
11:00 AM 84.2 °F 89.6 °F 71.6 °F 66% 29.77 in 6.2 mi NW 13.8 mph - N/A   Scattered Clouds
12:00 PM 85 °F - 72 °F 56% 29.80 in 9 mi NW 17.3 mph - -   Partly Cloudy
12:00 PM 82.4 °F 86.3 °F 69.8 °F 66% 29.77 in 6.2 mi NNW 16.1 mph - N/A   Partly Cloudy
1:00 PM 84.2 °F 89.6 °F 71.6 °F 66% 29.77 in 6.2 mi NW 17.3 mph - N/A   Partly Cloudy
2:00 PM 84.2 °F 89.6 °F 71.6 °F 66% 29.74 in 6.2 mi NW 15.0 mph - N/A   Partly Cloudy
3:00 PM 82.4 °F 87.2 °F 71.6 °F 70% 29.74 in 6.2 mi NW 16.1 mph - N/A   Partly Cloudy
4:00 PM 82.4 °F 87.2 °F 71.6 °F 70% 29.74 in 6.2 mi NW 15.0 mph - N/A   Partly Cloudy
5:00 PM 82.4 °F 87.2 °F 71.6 °F 70% 29.74 in 6.2 mi NW 12.7 mph - N/A   Partly Cloudy
6:00 PM 82 °F - 74 °F 71% 29.76 in 9 mi NW 15.0 mph - -   Mostly Cloudy
6:00 PM 80.6 °F 84.6 °F 71.6 °F 74% 29.74 in 6.2 mi NW 12.7 mph 25.3 mph N/A   Partly Cloudy
7:00 PM 80.6 °F 84.6 °F 71.6 °F 74% 29.74 in 6.2 mi NNW 15.0 mph - N/A   Scattered Clouds
8:00 PM 80.6 °F 84.6 °F 71.6 °F 74% 29.77 in 6.2 mi NNW 11.5 mph - N/A   Scattered Clouds
9:00 PM 82 °F - 75 °F 73% 29.80 in 6 mi NNW 16.1 mph - - Rain Light Rain Showers